Other Public Products
Issued by NWS Grand Forks, ND

Home | Current Version | Previous Version | Text Only | Print | Product List | Glossary On
Versions: 1 2 3 4 5 6 7 8 9 10 11 12 13 14 15 16 17 18 19 20 21 22 23 24 25 26 27 28 29 30 31 32 33 34 35 36 37 38 39 40 41 42 43 44 45 46 47 48 49 50
000
FPUS83 KFGF 061731
OPUFGF
PRAIRIE TO PINES WEATHER ROUNDUP
NATIONAL WEATHER SERVICE EASTERN NORTH DAKOTA/GRAND FORKS ND
1200 PM CDT MON JUL 06 2020

 **SATELLITE DATA USED TO AUGMENT SKY COVER AT AUTOMATED STATIONS**
 *****  WEATHER ACROSS EASTERN NORTH DAKOTA  *****

CITY           SKY/WX    TMP DP  RH WIND       PRES   REMARKS
GRAND FORKS    PTSUNNY   75  65  70 NW3       29.95R
GRND FORKS AFB PTSUNNY   79  66  65 N3        30.01R
GRND FORKS NWS   N/A     76  67  74 MISG      29.92S
BUXTON         NOT AVBL
DEVILS LAKE    FAIR      74  59  59 N5        30.02S
FARGO          CLOUDY    74  67  78 SW5       29.96S
WAHPETON ARPT    N/A     72  64  78 W6        29.99R
$$

 *****  WEATHER ACROSS CENTRAL AND WESTERN NORTH DAKOTA  *****

CITY           SKY/WX    TMP DP  RH WIND       PRES   REMARKS
JAMESTOWN      FAIR      79  64  60 N6        29.98F
BISMARCK       FAIR      81  64  56 N9        30.01F
MINOT          FAIR      78  51  38 CALM      30.02R
MINOT AFB      FAIR      77  51  40 N5        30.00S
GARRISON         N/A     76  63  64 CALM      30.02R
WILLISTON      NOT AVBL
DICKINSON      FAIR      77  60  55 SE7       30.03S
HETTINGER      FAIR      75  62  64 NE8       30.04F
$$

 *****  OTHER OBSERVATIONS NORTHEAST NORTH DAKOTA  *****

CITY           SKY/WX    TMP DP  RH WIND       PRES   REMARKS
WALHALLA       FAIR      79  57  47 N7        29.97R
LANGDON        FAIR      79  59  50 NW8       30.01R
CAVALIER       FAIR      77  59  53 NW9       29.96S
GRAFTON        FAIR      79  64  61 N7        29.97S
CANDO          FAIR      77  55  47 N6G12     30.02S
FORT TOTTEN      N/A     80  63  55 NE2       29.95S
ROLLA          FAIR      75  54  46 CALM      30.02S
RUGBY          PTSUNNY   75  57  53 NW6G12    30.00S
 ***** THE ABOVE OBSERVATIONS ARE NON NWS ARE NOT QUALITY
        CONTROLLED AND MAY MIS-REPORT RAIN FOR SNOW...
$$

 *****  OTHER OBSERVATIONS SOUTHEAST NORTH DAKOTA *****

CITY           SKY/WX    TMP DP  RH WIND       PRES   REMARKS
COOPERSTOWN    FAIR      77  70  78 E8        29.99F
VALLEY CITY    PTSUNNY   70  68  94 N13G18    30.00S
OAKES          FAIR      77  70  78 W7        29.99F
GWINNER        PTSUNNY   75  75 100 W8        29.99S
SHEYENNE NWR     N/A     75  68  79 W7        29.95S
BUFFALO        NOT AVBL
WYNDMERE       NOT AVBL
 ***** THE ABOVE OBSERVATIONS ARE NON NWS ARE NOT QUALITY
       CONTROLLED AND MAY MIS-REPORT RAIN FOR SNOW...
$$

  *****  WEATHER ACROSS NORTHERN MINNESOTA  *****

CITY           SKY/WX    TMP DP  RH WIND       PRES   REMARKS
FLAG ISLAND    NOT AVBL
WARROAD        FAIR      79  70  73 CALM      29.94R
ROSEAU           N/A     79  70  73 CALM      29.93S
HALLOCK        FAIR      81  68  65 W9        29.94S
THF RVR FALLS  LGT RAIN  73  69  87 NW7       29.97S
HALSTAD        NOT AVBL
FOSSTON        FAIR      73  66  78 NW6       29.98R
BAUDETTE       FAIR      78  68  71 N6        29.93R
WASKISH          N/A     75  68  78 SW6       29.94R
CROOKSTON      PTSUNNY   73  70  88 NW6       29.96S
$$
  *****  WEATHER ACROSS CENTRAL AND WEST MINNESOTA  *****

CITY           SKY/WX    TMP DP  RH WIND       PRES   REMARKS
BEMIDJI        CLOUDY    78  66  66 NW8       29.96R
PARK RAPIDS    PTSUNNY   77  64  64 W12       29.97R
WADENA         FAIR      72  64  78 W7        29.99R
DETROIT LAKES  FAIR      75  64  69 NW7       30.00S
MOORHEAD       FAIR      75  66  73 W5        29.97F
FERGUS FALLS   PTSUNNY   72  66  83 W6        29.96S
ELBOW LAKE     PTSUNNY   74  68  81 W9        30.01R
MORRIS MN      FAIR      75  61  60 W3        30.01R
STAPLES        FAIR      75  64  69 W7        29.99R
WHEATON          N/A     79  63  57 SW3       30.00S
$$
  *****  WEATHER ELSEWHERE ACROSS MINNESOTA  *****

CITY           SKY/WX    TMP DP  RH WIND       PRES   REMARKS
DULUTH         PTSUNNY   78  69  73 S7        29.96S
INTRNTL FALLS  FAIR      81  68  64 N3        29.91S
ELY            LGT RAIN  75  68  78 CALM      29.94F
CLOQUET        PTSUNNY   79  68  69 S8        29.96F
BRAINERD       FAIR      80  66  62 S8        29.97R
HIBBING        FAIR      77  67  71 W5        29.94F
ALEXANDRIA     CLOUDY    76  65  68 SW9       30.02R
SAINT CLOUD    FAIR      78  67  68 W3        29.98R
MINNEAPOLIS    PTSUNNY   78  70  76 S3        29.97R
$$

  *****  WEATHER ACROSS SOUTH DAKOTA  *****

CITY           SKY/WX    TMP DP  RH WIND       PRES   REMARKS
SIOUX FALLS    FAIR      79  67  66 SE13      30.02F
BROOKINGS      PTSUNNY   74  65  73 S15       30.02R
WATERTOWN      CLOUDY    74  66  76 CALM      30.03R
HURON          CLOUDY    77  65  66 SE3       30.01R
SISSETON         N/A     73  66  78 S6        29.99R
ABERDEEN       FAIR      80  61  52 CALM      30.00S
MITCHELL       PTSUNNY   83  72  69 S5        30.00S
PIERRE         FAIR      74  65  73 N8        30.01R
MOBRIDGE       FAIR      79  63  57 VRB3      30.00S
RAPID CITY     FAIR      77  57  50 S10       30.05F
$$

  *****  SOME WEATHER IN NEARBY STATES *****

CITY           SKY/WX    TMP DP  RH WIND       PRES   REMARKS
GLASGOW MT     FAIR      78  55  44 SE10      30.01F
GREAT FALLS MT FAIR      71  45  39 VRB3      30.02F
CHEYENNE WY    FAIR      79  43  27 NE7       30.18F
SCOTTSBLUFF NE FAIR      78  62  57 CALM      30.07F
OMAHA NE       FAIR      87  72  60 NE8       30.02F HX  93
DES MOINES IA  PTSUNNY   87  70  56 N7        30.01F HX  92
DAVENPORT IA   FAIR      88  69  53 MISG      30.05S HX  92
CHICAGO IL     FAIR      92  64  39 S6        30.03S HX  93
EAU CLAIRE WI  FAIR      86  67  52 NW6       29.98F
LA CROSSE WI   FAIR      89  70  53 SW8       29.98F HX  94
$$

  *****  SOME NATIONAL WEATHER *****

CITY           SKY/WX    TMP DP  RH WIND       PRES   REMARKS
LA GUARDIA NY  FAIR      93  57  29 E8        30.02S HX  91
RALEIGH NC     PTSUNNY   88  69  53 VRB6      30.10F HX  92
ATLANTA GA     CLOUDY    82  69  64 E8        30.03F
NEW ORLEANS LA HVY RAIN  78  74  87 SW3       29.99S FOG
OKLAHOMA CITY  FAIR      86  69  56 E9        29.98F HX  90
ALBUQUERQUE NM FAIR      84  46  26 NW7       30.17F
SALT LAKE CITY FAIR      85  40  20 CALM      30.01S
LOS ANGELES CA FAIR      77  57  50 CALM      29.88R
BOISE ID       FAIR      75  47  36 W5        29.97F
SEATTLE WA     FAIR      62  50  64 S9        30.08S
$$

*** WEATHER ACROSS MANITOBA...SASKATCHEWAN AND ONTARIO ***
                ***ONTARIO***

CITY           SKY/WX    TMP DP  RH WIND       PRES   REMARKS
GERALDTON      PTSUNNY   79  68  69 SW12      29.88F
THUNDER BAY    PTSUNNY   81  70  69 VRB2      29.90R
SIOUX LOOKOUT  PTSUNNY   77  66  69 NW6       29.90F
TORONTO        MOSUNNY   86  63  45 SE8       30.04S
BIG TROUT LK   SUNNY     75  68  78 S5        29.74F
PICKLE LAKE    MOSUNNY   77  66  69 W10G18    29.85F
DRYDEN         MOSUNNY   77  66  69 W8        29.91S
KENORA         PTSUNNY   77  64  65 N6        29.93F
$$
                *** MANITOBA***

CITY           SKY/WX    TMP DP  RH WIND       PRES   REMARKS
BRANDON        MOSUNNY   73  57  56 W15       29.98S
DAUPHIN        SUNNY     73  57  56 W15G24    29.91S
ISLAND LAKE    NOT AVBL
PILOT MOUND      N/A     75  57  53 W9          N/A
THE PAS        NOT AVBL
THOMPSON       CLOUDY    64  61  88 W15G21    29.66R
WINNIPEG       MOSUNNY   77  61  57 W8        29.93S
LYNN LAKE      CLOUDY    61  57  88 MISG      29.67R
CHURCHILL      MOSUNNY   73  61  64 SW10G17   29.48F
GILLAM         PTSUNNY   73  61  64 SW14G21   29.58F
$$
                ***SASKATCHEWAN***

CITY           SKY/WX    TMP DP  RH WIND       PRES   REMARKS
ESTEVAN        PTSUNNY   72  54  53 NW9       30.03F
KINDERSLEY     MOSUNNY   66  52  59 W5        30.02F
LLOYDMINSTER   MOSUNNY   66  50  55 W10       29.99S
PRINCE ALBERT  PTSUNNY   68  55  64 NW12G17   29.93F
REGINA         MOSUNNY   73  54  49 W10       30.02S
YORKTON        MOSUNNY   73  52  46 W15G23    29.96S


USA.gov is the U.S. government's official web portal to all federal, state and local government web resources and services.